Home   Weather   Cleveland   Past weeks
Flag for USA

Past Weather in Cleveland, Ohio, USA — May 2015

Now
43 °F

Partly sunny.


Feels Like: 38 °F
Forecast: 53 / 34 °F
Wind: 8 mph from Southwest

Location: Cleveland-Hopkins International Airport

Current Time: Mar 19, 2019 at 8:06:44 pm

Latest Report: Mar 19, 2019 at 6:51 pm


Visibility: 10 mi

Pressure: 30.39 "Hg

Humidity: 49%

Dew Point: 25 °F

Location of ClevelandLocation

May 2015 Weather in Cleveland — Graph

°F

High & Low Weather Summary for May 2015

 TemperatureHumidityPressure
High87 °F (May 9, 4:51 pm)100% (May 6, 6:51 am)30.50 "Hg (May 6, 6:51 am)
Low36 °F (May 14, 4:51 am)27% (May 23, 5:51 pm)29.82 "Hg (May 11, 5:51 pm)
Average64 °F66%30.12 "Hg
* Reported May 1 12:51 am — May 31 11:51 pm, Cleveland. Weather by CustomWeather, © 2019

Note: Actual official high and low records may vary slightly from our data, if they occured in-between our weather recording intervals... More about our weather records

Advertising

Cleveland Weather History for May 1, 2015

Scroll right to see more
 ConditionsComfort  
Time TempWeatherWind HumidityBarometerVisibility
12:51 am
Fri, May 1
46 °FMostly cloudy.7 mph83%29.99 "Hg10 mi
1:51 am46 °FOvercast.7 mph79%29.99 "Hg10 mi
2:51 am46 °FOvercast.9 mph77%29.99 "Hg10 mi
3:51 am45 °FPassing clouds.7 mph80%29.99 "Hg10 mi
4:51 am43 °FPassing clouds.5 mph82%30.00 "Hg10 mi
5:51 am42 °FPassing clouds.3 mph85%30.01 "Hg10 mi
6:51 am42 °FPassing clouds.6 mph85%30.03 "Hg10 mi
7:51 am45 °FPassing clouds.7 mph82%30.06 "Hg10 mi
8:51 am49 °FPassing clouds.5 mph74%30.07 "Hg10 mi
9:51 am52 °FSunny.8 mph69%30.09 "Hg10 mi
10:51 am56 °FSunny.8 mph62%30.09 "Hg10 mi
11:51 am59 °FSunny.5 mph58%30.08 "Hg10 mi
12:51 pm61 °FSunny.12 mph52%30.08 "Hg10 mi
1:51 pm62 °FSunny.10 mph52%30.09 "Hg10 mi
2:51 pm63 °FSunny.9 mph48%30.08 "Hg10 mi
3:51 pm64 °FSunny.8 mph45%30.07 "Hg10 mi
4:51 pm66 °FSunny.9 mph40%30.06 "Hg10 mi
5:51 pm65 °FSunny.8 mph42%30.06 "Hg10 mi
6:51 pm65 °FSunny.6 mph42%30.06 "Hg10 mi
7:51 pm63 °FSunny.6 mph43%30.05 "Hg10 mi
8:51 pm61 °FSunny.3 mph44%30.06 "Hg10 mi
9:51 pm58 °FClear.No wind50%30.08 "Hg10 mi
10:51 pm56 °FClear.No wind53%30.08 "Hg10 mi
11:51 pm50 °FClear.3 mph68%30.09 "Hg10 mi
Weather by CustomWeather, © 2019

See weather overview